Main page
METAR-TAF:

METAR-TAF

Airports :

Camp Mabry

Austin, Texas, United States

latitude: 30-19N, longitude: 097-46W, elevation: 656 ft

Current weather observation

The report was made 45 minutes ago, at 05:51 UTC
Wind 8 mph from the South/Southeast
Temperature 82°F
Humidity 79%
Pressure 29.94 in. Hg
Visibility: 10 miles
Clear sky

METAR: KATT 250551Z AUTO 16007KT 10SM CLR 28/24 A2994 RMK AO2 SLP123 T02830239 10339 20283 403610256 51013

Time: 01:36 (06:36 UTC)


TAF: missing

Weather observations and forecasts of more than 4000 airports (METAR and TAF reports).

The available stations are represented by yellow and red dots on the map.

Hover mouse over dot to see the name of the station.

Then click to see weather observations and forecasts.

To change the map : click on the green buttons with a black cross to zoom in, on the green button with a dash to zoom out, or on the green arrows for adjacent maps.


METAR-TAF: